Powrót do katalogu

STARLINK-32404

AktywnyŁącznośćVLEO
NORAD 61710·PAYLOAD·🇺🇸 United States

Wystrzelony Oct 30, 2024 z Cape Canaveral Space Force Station

Loading…

Następne Przeloty (najbliższe 24 godziny)

TLE

ŚwieżeSource: CelesTrak SupGP

Epoka: Sep 14, 2026, 22:25 UTC

1 61710C 24196D   26257.93451389  .00038948  00000+0  11514-2 0  2573
2 61710  53.1593 299.7896 0000940  82.5579  20.4433 15.34353187    19

Śledź STARLINK-32404 w czasie rzeczywistym z AllMySat

Download on the App Store